This demonstration page uses our WeatherBlox Daily Observations layout. Learn more.

Left ArrowRight Arrow

44.89941, -97.11507

Hourly Observations for July 2, 2022

Temp ( °F °C ) Dew Point ( °F °C ) Humidity (%) Winds ( mph kmh ) Pressure ( in mb ) Visibility ( mi km ) Precip ( " mm )
12:53 am 00:53 Mostly Cloudy 66 18.9 56 13.3 70 70 S 7 11 29.98 1015 10 16 0.00 0.00
1:53 am 01:53 Mostly Cloudy 70 21.1 55 12.8 59 59 SSW 13 20 29.97 1015 10 16 0.00 0.00
2:53 am 02:53 Clear 69 20.6 55 12.8 61 61 SSW 14 22 29.94 1014 10 16 0.00 0.00
3:53 am 03:53 Mostly Clear 65 18.3 55 12.8 70 70 Calm 29.95 1014 10 16 0.00 0.00
4:53 am 04:53 Mostly Cloudy 65 18.3 56 13.3 73 73 Calm 29.94 1014 10 16 0.00 0.00
5:53 am 05:53 Sunny 60 15.6 56 13.3 86 86 NNE 5 7 29.97 1015 10 16 0.00 0.00
6:53 am 06:53 Partly Cloudy 66 18.9 57 13.9 73 73 NE 7 11 29.99 1016 10 16 0.00 0.00
7:53 am 07:53 Mostly Cloudy 65 18.3 57 13.9 76 76 E 6 9 30.01 1016 10 16 0.00 0.00
8:18 am 08:18 Cloudy with Nearby Thunderstorms 65 18.3 57 13.9 76 76 SSE 13 20 30.01 1016 10 16 0.00 0.00
8:39 am 08:39 Cloudy with Nearby Thunderstorms 63 17.2 59 15 87 87 E 9 15 30.03 1017 2 3 0.09 2.29
8:45 am 08:45 Cloudy with Nearby Thunderstorms 63 17.2 59 15 87 87 SE 8 13 30.02 1017 3 5 0.11 2.79
8:53 am 08:53 Cloudy with Nearby Thunderstorms 63 17.2 59 15 87 87 SSE 8 13 30.06 1018 10 16 0.11 2.79
9:05 am 09:05 Cloudy with Rain 62 16.7 60 15.6 93 93 ESE 6 9 30.05 1017 2 3 0.07 1.78
9:14 am 09:14 Cloudy with Light Rain 62 16.7 60 15.6 93 93 E 7 11 30.04 1017 5 8 0.08 2.03
9:53 am 09:53 Cloudy with Light Rain 62 16.7 59 15 90 90 E 8 13 30.04 1017 10 16 0.14 3.56
10:53 am 10:53 Mostly Cloudy 67 19.4 60 15.6 79 79 SE 14 22 30.01 1016 10 16 0.00 0.00
11:53 am 11:53 Mostly Cloudy 71 21.7 59 15 66 66 ESE 13 20 30.02 1017 10 16 0.00 0.00
12:53 pm 12:53 Cloudy 70 21.1 59 15 68 68 SE 12 19 30.02 1017 10 16 0.00 0.00
1:53 pm 13:53 Cloudy 72 22.2 59 15 64 64 SSE 17 28 30.01 1016 10 16 0.00 0.00
2:53 pm 14:53 Partly Cloudy 76 24.4 61 16.1 60 60 SE 13 20 30.01 1016 10 16 0.00 0.00
3:53 pm 15:53 Mostly Cloudy 79 26.1 62 16.7 56 56 SSE 10 17 30.01 1016 10 16 0.00 0.00
4:53 pm 16:53 Sunny 78 25.6 61 16.1 56 56 S 13 20 30.00 1016 10 16 0.00 0.00
5:53 pm 17:53 Sunny 79 26.1 61 16.1 54 54 SSE 8 13 29.99 1016 10 16 0.00 0.00
6:53 pm 18:53 Mostly Sunny 78 25.6 60 15.6 54 54 SE 7 11 29.97 1015 10 16 0.00 0.00
7:53 pm 19:53 Mostly Sunny 77 25 61 16.1 58 58 E 8 13 29.96 1015 10 16 0.00 0.00
8:53 pm 20:53 Partly Cloudy 75 23.9 62 16.7 64 64 ESE 9 15 29.96 1015 10 16 0.00 0.00
9:53 pm 21:53 Mostly Cloudy 72 22.2 65 18.3 79 79 E 9 15 29.98 1015 10 16 0.00 0.00
10:53 pm 22:53 Mostly Clear 70 21.1 63 17.2 79 79 E 7 11 29.99 1016 10 16 0.00 0.00
11:53 pm 23:53 Partly Cloudy 70 21.1 61 16.1 73 73 ESE 8 13 29.98 1015 10 16 0.00 0.00

Powered by AerisWeather